Date String (YYYY-MM-DD hh:mm:ss) UTC,Instrument flags,Ambient pressure (hPa),Sample flow (lpm),Bypass flow (lpm),Sample temperature (°C),Ambient temperature (°C),ASC tube jacket temperature (°C),LED temperature (°C),Box temperature (°C),Sample RH (%),Span deviation,Mass concentration (μg/m³),Mass concentration (μg/m³),Mass concentration (μg/m³)
DateTimeUTC,F1_M11,P_M11,Q1_M11,Q2_M11,T1_M11,T2_M11,T3_M11,T4_M11,T5_M11,U1_M11,ZSPAN_M11,X0_M11,X2_M11,X1_M11
2022-09-22 05:00:00,,0833.4,5.00,0.00,29.7,28.2,00.0,38.5,31.5,26.0,-001.0,0008.79,0006.74,0006.51
2022-09-22 05:01:00,,0833.4,5.01,0.00,29.7,28.2,00.0,38.5,31.5,26.1,-001.0,0008.83,0006.77,0006.53
2022-09-22 05:02:00,,0833.4,4.99,0.00,29.7,28.2,00.0,38.4,31.5,26.1,-001.4,0008.81,0006.76,0006.54
2022-09-22 05:03:00,,0833.5,5.01,0.00,29.7,28.2,00.0,38.4,31.5,26.2,-001.6,0008.79,0006.76,0006.56
2022-09-22 05:04:00,,0833.5,4.99,0.00,29.7,28.2,00.0,38.4,31.5,26.2,-001.5,0008.79,0006.77,0006.58
2022-09-22 05:05:00,,0833.5,5.00,0.00,29.7,28.2,00.0,38.4,31.5,26.2,-001.9,0008.75,0006.76,0006.58
2022-09-22 05:06:00,,0833.6,5.01,0.00,29.7,28.2,00.0,38.5,31.5,26.2,-002.2,0008.74,0006.75,0006.58
2022-09-22 05:07:00,,0833.5,5.00,0.00,29.7,28.2,00.0,38.5,31.5,26.1,-002.2,0008.74,0006.72,0006.57
2022-09-22 05:08:00,,0833.5,4.99,0.00,29.7,28.2,00.0,38.5,31.6,26.1,-000.4,0008.73,0006.73,0006.58
2022-09-22 05:09:00,,0833.6,5.01,0.00,29.7,28.2,00.0,38.5,31.6,26.1,-000.1,0008.78,0006.74,0006.57
2022-09-22 05:10:00,,0833.5,5.00,0.00,29.7,28.2,00.0,38.5,31.6,26.0,-000.9,0008.81,0006.75,0006.58
2022-09-22 05:11:00,,0833.5,5.00,0.00,29.7,28.2,00.0,38.5,31.6,26.0,0000.0,0008.81,0006.74,0006.57
2022-09-22 05:12:00,,0833.5,4.99,0.00,29.7,28.2,00.0,38.5,31.6,26.0,-001.2,0008.77,0006.72,0006.56
2022-09-22 05:13:00,,0833.5,5.01,0.00,29.7,28.2,00.0,38.5,31.6,25.9,-001.5,0008.82,0006.73,0006.56
2022-09-22 05:14:00,,0833.4,4.99,0.00,29.8,28.2,00.0,38.5,31.6,25.9,-001.8,0008.86,0006.73,0006.56
2022-09-22 05:15:00,,0833.4,5.02,0.00,29.7,28.2,00.0,38.5,31.6,25.9,-000.4,0008.86,0006.74,0006.55
2022-09-22 05:16:00,,0833.4,4.99,0.00,29.7,28.2,00.0,38.5,31.6,25.9,-001.7,0008.91,0006.76,0006.56
2022-09-22 05:17:00,,0833.4,5.01,0.00,29.7,28.2,00.0,38.5,31.6,25.9,-002.2,0008.91,0006.77,0006.57
2022-09-22 05:18:00,,0833.4,5.00,0.00,29.8,28.3,00.0,38.5,31.6,25.9,-002.6,0008.88,0006.81,0006.60
2022-09-22 05:19:00,,0833.5,5.00,0.00,29.8,28.2,00.0,38.5,31.6,26.0,-002.7,0008.85,0006.82,0006.64
2022-09-22 05:20:00,,0833.4,4.99,0.00,29.8,28.2,00.0,38.5,31.6,26.9,-002.6,0008.81,0006.84,0006.67
2022-09-22 05:21:00,,0833.4,5.00,0.00,29.8,28.2,00.0,38.5,31.6,26.5,-002.3,0008.85,0006.87,0006.70
2022-09-22 05:22:00,,0833.5,5.00,0.00,29.7,28.2,00.0,38.5,31.6,26.1,-001.8,0008.87,0006.91,0006.74
2022-09-22 05:23:00,,0833.4,5.01,0.00,29.7,28.2,00.0,38.5,31.6,26.0,-001.6,0008.97,0006.97,0006.77
2022-09-22 05:24:00,,0833.4,4.98,0.00,29.7,28.2,00.0,38.5,31.6,26.0,-001.9,0008.93,0007.00,0006.80
2022-09-22 05:25:00,,0833.3,5.00,0.00,29.7,28.2,00.0,38.5,31.6,25.9,-001.9,0008.94,0007.04,0006.86
2022-09-22 05:26:00,,0833.3,4.99,0.00,29.7,28.2,00.0,38.5,31.6,25.9,-001.8,0008.96,0007.07,0006.89
2022-09-22 05:27:00,,0833.3,5.01,0.00,29.7,28.2,00.0,38.5,31.6,26.0,-001.6,0008.95,0007.10,0006.92
2022-09-22 05:28:00,,0833.3,5.00,0.00,29.7,28.2,00.0,38.5,31.6,26.0,-001.5,0008.96,0007.11,0006.93
2022-09-22 05:29:00,,0833.2,5.00,0.00,29.7,28.2,00.0,38.5,31.6,26.0,-001.5,0008.95,0007.10,0006.92
2022-09-22 05:30:00,,0833.2,5.00,0.00,29.7,28.2,00.0,38.5,31.6,26.1,-001.3,0009.03,0007.10,0006.91
2022-09-22 05:31:00,,0833.2,5.00,0.00,29.7,28.2,00.0,38.5,31.6,26.0,-001.4,0009.15,0007.08,0006.89
2022-09-22 05:32:00,,0833.2,4.99,0.00,29.7,28.2,00.0,38.5,31.5,26.1,-001.8,0009.08,0007.03,0006.86
2022-09-22 05:33:00,,0833.3,5.01,0.00,29.7,28.2,00.0,38.5,31.5,26.1,-001.8,0009.06,0007.01,0006.83
2022-09-22 05:34:00,,0833.3,4.99,0.00,29.7,28.2,00.0,38.5,31.6,26.2,-001.7,0008.94,0006.94,0006.80
2022-09-22 05:35:00,,0833.3,5.01,0.00,29.7,28.2,00.0,38.5,31.6,26.1,-001.4,0008.91,0006.92,0006.78
2022-09-22 05:36:00,,0833.4,4.99,0.00,29.7,28.2,00.0,38.5,31.5,26.1,-001.2,0008.88,0006.88,0006.73
2022-09-22 05:37:00,,0833.4,5.01,0.00,29.7,28.2,00.0,38.5,31.5,26.2,-001.6,0008.86,0006.84,0006.68
2022-09-22 05:38:00,,0833.5,4.98,0.00,29.7,28.2,00.0,38.5,31.6,26.1,-001.5,0008.80,0006.80,0006.66
2022-09-22 05:39:00,,0833.5,5.01,0.00,29.7,28.2,00.0,38.5,31.6,26.0,-001.2,0008.77,0006.78,0006.62
2022-09-22 05:40:00,,0833.5,4.99,0.00,29.7,28.2,00.0,38.5,31.6,26.0,-000.7,0008.74,0006.76,0006.60
2022-09-22 05:41:00,,0833.5,5.01,0.00,29.7,28.2,00.0,38.5,31.6,26.0,-000.8,0008.74,0006.76,0006.59
2022-09-22 05:42:00,,0833.5,4.99,0.00,29.7,28.2,00.0,38.5,31.6,26.1,-000.3,0008.53,0006.73,0006.56
2022-09-22 05:43:00,,0833.6,4.99,0.00,29.7,28.2,00.0,38.5,31.6,26.0,0000.0,0008.43,0006.63,0006.46
2022-09-22 05:44:00,,0833.5,5.01,0.00,29.7,28.2,00.0,38.5,31.6,26.0,0000.0,0008.27,0006.49,0006.34
2022-09-22 05:45:00,,0833.6,4.99,0.00,29.7,28.2,00.0,38.5,31.6,26.0,0000.0,0008.20,0006.39,0006.24
2022-09-22 05:46:00,,0833.5,5.01,0.00,29.7,28.1,00.0,38.5,31.6,25.9,0000.0,0008.15,0006.28,0006.13
2022-09-22 05:47:00,,0833.5,5.00,0.00,29.7,28.1,00.0,38.5,31.6,25.8,0000.0,0008.48,0006.15,0006.01
2022-09-22 05:48:00,,0833.5,4.99,0.00,29.7,28.1,00.0,38.5,31.5,25.8,0000.0,0008.34,0006.03,0005.91
2022-09-22 05:49:00,,0833.5,5.01,0.00,29.7,28.1,00.0,38.5,31.5,25.8,0000.0,0008.52,0005.93,0005.81
2022-09-22 05:50:00,,0833.5,4.99,0.00,29.7,28.1,00.0,38.5,31.5,25.8,0000.0,0009.05,0005.82,0005.71
2022-09-22 05:51:00,,0833.5,5.02,0.00,29.7,28.1,00.0,38.5,31.5,25.8,0000.0,0008.91,0005.67,0005.57
2022-09-22 05:52:00,,0833.5,4.99,0.00,29.7,28.1,00.0,38.5,31.5,25.7,0000.0,0008.74,0005.48,0005.39
2022-09-22 05:53:00,,0833.5,5.00,0.00,29.7,28.0,00.0,38.4,31.5,25.6,0000.0,0008.60,0005.33,0005.24
2022-09-22 05:54:00,,0833.5,4.99,0.00,29.7,28.0,00.0,38.4,31.5,25.5,0000.0,0008.54,0005.25,0005.17
2022-09-22 05:55:00,,0833.5,5.01,0.00,29.7,28.0,00.0,38.4,31.5,25.5,0000.0,0008.51,0005.20,0005.11
2022-09-22 05:56:00,,0833.5,4.99,0.00,29.6,28.0,00.0,38.4,31.4,25.5,0000.0,0008.45,0005.14,0005.05
2022-09-22 05:57:00,,0833.5,5.01,0.00,29.6,27.9,00.0,38.4,31.4,25.5,0000.0,0008.34,0005.06,0004.97
2022-09-22 05:58:00,,0833.4,4.99,0.00,29.6,27.9,00.0,38.4,31.4,25.5,0000.0,0007.87,0005.00,0004.90
2022-09-22 05:59:00,,0833.4,5.01,0.00,29.6,27.9,00.0,38.4,31.4,25.5,0000.0,0007.84,0004.94,0004.84
